Showing default

COSMOS 249, 3504

Orbit data source: Space-Track

COSMOS 249, 3504 is a payload satellite owned by PKO (CIS) in LEO that was launched on Sun, 20 Oct 1968 UTC via a TSIKLON-2A launch vehicle from the Tyuratam Missile And Space Complex (TTMTR). Payload-class satellites include a variety of spacecraft equipped with specific instruments for various scientific and technological missions. These include communications satellites like Starlink; space stations such as the ISS; scientific satellites like the Hubble; Earth observation satellites from companies like Planet Labs, Umbra, and HawkEye 360; GPS; miniature CubeSats for education and research; and military/defense satellites.

Loading next visibility...
Identifier
3504, 1968-091A
Orbit
LEO
Country
Flag of CISCIS
Related business
Manufacturer
TSKBM/KB1
Mission
Spacecraft
Bus & Motor
IS, Unknown motor
Mass
1,400 kg wet, ~1,400 kg dry
Launch date (UTC)
1968-10-20 (58 years ago)
Launch vehicle
TSIKLON-2A
Launch site
Tyuratam Missile And Space Complex (TTMTR)
Object type
Payload
Rocket body
Debris
Shape & HBR
CYL + TRUSS, 1.1 m
Radar Cross Section
Large (>1 m²)

Expand to show TLE details & history
Last TLE update: 9 hours ago

TLE from 9 hours ago
0 COSMOS 249
1  3504U 68091A   26255.65495426 -.00000043  00000-0  22463-4 0  9996
2  3504  62.3416  52.5425 1015238  39.1907 327.8308 12.97206473731832
Epoch: 2026-09-12T15:43Z
TLE epoch observation values (Epoch: 2026-09-12T15:43:08.048Z)
Latitude
-0°
Longitude
-174.90188°
Altitude
642.639 km
Speed
7.842 km/s
True Right ascension
03h 30m 10s
True Declination
0° 00' 00"
Sunlit
Object was in full shadow at epoch
Visualization orbit readout
Latitude
Unknown
Longitude
Unknown
Altitude
Unknown
Speed
Unknown
Apparent Right ascension
Unknown
Apparent Declination
Unknown
Sunlit
N/A
Visualization observer readout
Local Sidereal Time
17:33:23
Azimuth
Unknown
Elevation
Unknown
Doppler factor
Unknown
Orbital elements
Apogee altitude
2,048.7 km
Perigee altitude
495.353 km
Semi-major axis
7,650.163 km
Eccentricity
0.10152
Inclination
62.3416°
RAAN
52.5425°
Arg. of periapsis
39.1907°
True anomaly
320.91245°
Mean anomaly
327.8308°
Eccentric anomaly
324.44868°
Mean motion
3.24367 °/min
Orbital period
110.99 mins
BSTAR
0.000022463
Loading maneuver chart data...
Computing Atmospheric mass density...

Documentation

Showing up to 5 results
|